Weather History for Payson, AZ

Change the Weather History Date:

Monday, January 21, 2013

  Actual Average Record
Temperature  
Mean Temperature 50 °F -  
Max Temperature 62 °F 53 °F 62 °F (2013)
Min Temperature 37 °F 25 °F 33 °F (2012)
Degree Days  
Heating Degree Days 16    
Moisture  
Dew Point 6 °F    
Average Humidity 19    
Maximum Humidity 30    
Minimum Humidity 12    
Precipitation  
Precipitation 0.00 in - - ()
Sea Level Pressure  
Sea Level Pressure 30.22 in    
Wind  
Wind Speed 6 mph (NE)    
Max Wind Speed 10 mph    
Max Gust Speed -    
Visibility 10 miles    
Events      
Averages and records for this station are not official NWS values.
T = Trace of Precipitation, MM = Missing Value Source: NWS Daily Summary

Daily Weather History Graph

Daily Weather History Graph

Search for Another Location

Airport:

Trip Planner

Search our weather history database for the weather conditions in past years. The results will help you decide how hot, cold, wet, or windy it might be!

Date:

Astronomy

Jan. 21, 2013 Rise Set
Actual Time 7:29 AM MST 5:44 PM MST
Civil Twilight 7:02 AM MST 6:11 PM MST
Nautical Twilight 6:31 AM MST 6:42 PM MST
Astronomical Twilight 6:01 AM MST 7:12 PM MST
Moon 1:28 PM MST (1/21) 3:00 AM MST (1/21)
Length of Visible Light 11h 09m
Length of Day
10h 15m
Waxing Gibbous, 75% of the Moon is Illuminated
Jan 21
Waxing Gibbous
Jan 26
Full
Feb 3
Last Quarter
Feb 10
New
Feb 17
First Quarter

Hourly Weather History & Observations

Time (MST) Temp. Windchill Dew Point Humidity Pressure Visibility Wind Dir Wind Speed Gust Speed Precip Events Conditions
12:15 AM 42.8 °F 39.3 °F -4.0 °F 14% 30.21 in 10.0 mi North 5.8 mph - N/A   Clear
12:35 AM 41.0 °F 37.1 °F -4.0 °F 15% 30.21 in 10.0 mi NE 5.8 mph - N/A   Clear
12:55 AM 41.0 °F 38.0 °F -5.8 °F 14% 30.20 in 10.0 mi NE 4.6 mph - N/A   Clear
1:15 AM 39.2 °F 35.0 °F -0.4 °F 19% 30.20 in 10.0 mi NNE 5.8 mph - N/A   Clear
1:35 AM 39.2 °F 35.0 °F -0.4 °F 19% 30.20 in 10.0 mi NNE 5.8 mph - N/A   Clear
1:55 AM 39.2 °F 35.9 °F -0.4 °F 19% 30.20 in 10.0 mi NNE 4.6 mph - N/A   Clear
2:15 AM 37.4 °F 32.8 °F 1.4 °F 22% 30.21 in 10.0 mi NE 5.8 mph - N/A   Clear
2:35 AM 39.2 °F 35.0 °F 1.4 °F 21% 30.21 in 10.0 mi North 5.8 mph - N/A   Clear
2:55 AM 39.2 °F 35.0 °F 1.4 °F 21% 30.21 in 10.0 mi NNE 5.8 mph - N/A   Clear
3:15 AM 37.4 °F 33.8 °F 3.2 °F 24% 30.20 in 10.0 mi NE 4.6 mph - N/A   Clear
3:35 AM 37.4 °F 32.1 °F 3.2 °F 24% 30.20 in 10.0 mi NE 6.9 mph - N/A   Clear
3:55 AM 37.4 °F 32.8 °F 3.2 °F 24% 30.19 in 10.0 mi NNE 5.8 mph - N/A   Clear
4:15 AM 39.2 °F 35.9 °F 3.2 °F 22% 30.19 in 10.0 mi North 4.6 mph - N/A   Clear
4:35 AM 39.2 °F 35.0 °F 3.2 °F 22% 30.19 in 10.0 mi North 5.8 mph - N/A   Clear
4:55 AM 37.4 °F 32.8 °F 5.0 °F 26% 30.19 in 10.0 mi North 5.8 mph - N/A   Clear
5:15 AM 37.4 °F 32.1 °F 6.8 °F 28% 30.19 in 10.0 mi North 6.9 mph - N/A   Clear
5:35 AM 37.4 °F 32.8 °F 5.0 °F 26% 30.19 in 10.0 mi NNE 5.8 mph - N/A   Clear
5:55 AM 37.4 °F 32.1 °F 5.0 °F 26% 30.19 in 10.0 mi NNE 6.9 mph - N/A   Clear
6:15 AM 39.2 °F 35.0 °F 5.0 °F 24% 30.20 in 10.0 mi NNE 5.8 mph - N/A   Clear
6:35 AM 37.4 °F 32.8 °F 6.8 °F 28% 30.20 in 10.0 mi NNE 5.8 mph - N/A   Clear
6:55 AM 37.4 °F 32.1 °F 6.8 °F 28% 30.21 in 10.0 mi NNE 6.9 mph - N/A   Clear
7:15 AM 39.2 °F 35.0 °F 6.8 °F 26% 30.21 in 10.0 mi NNE 5.8 mph - N/A   Clear
7:35 AM 37.4 °F 34.9 °F 8.6 °F 30% 30.21 in 10.0 mi NE 3.5 mph - N/A   Clear
7:55 AM 37.4 °F 32.8 °F 6.8 °F 28% 30.21 in 10.0 mi NE 5.8 mph - N/A   Clear
8:35 AM 42.8 °F - 6.8 °F 23% 30.22 in 10.0 mi Calm Calm - N/A   Clear
8:55 AM 44.6 °F 41.4 °F 8.6 °F 23% 30.23 in 10.0 mi NE 5.8 mph - N/A   Clear
9:15 AM 46.4 °F 43.5 °F 8.6 °F 22% 30.24 in 10.0 mi NE 5.8 mph - N/A   Clear
9:35 AM 48.2 °F - 8.6 °F 20% 30.25 in 10.0 mi NNE 5.8 mph - N/A   Clear
9:55 AM 50.0 °F - 8.6 °F 19% 30.25 in 10.0 mi NNE 5.8 mph - N/A   Clear
10:15 AM 51.8 °F - 10.4 °F 19% 30.26 in 10.0 mi NE 5.8 mph - N/A   Clear
10:35 AM 53.6 °F - 10.4 °F 18% 30.26 in 10.0 mi ENE 3.5 mph - N/A   Clear
10:55 AM 55.4 °F - 8.6 °F 15% 30.26 in 10.0 mi East 5.8 mph - N/A   Clear
11:15 AM 57.2 °F - 5.0 °F 12% 30.26 in 10.0 mi East 4.6 mph - N/A   Clear
11:35 AM 59.0 °F - 5.0 °F 12% 30.26 in 10.0 mi ESE 9.2 mph - N/A   Clear
11:55 AM 59.0 °F - 5.0 °F 12% 30.25 in 10.0 mi East 4.6 mph - N/A   Clear
12:15 PM 59.0 °F - 8.6 °F 14% 30.24 in 10.0 mi ENE 5.8 mph - N/A   Clear
12:35 PM 60.8 °F - 8.6 °F 13% 30.23 in 10.0 mi ENE 4.6 mph - N/A   Clear
12:55 PM 60.8 °F - 8.6 °F 13% 30.22 in 10.0 mi ENE 6.9 mph - N/A   Clear
1:15 PM 60.8 °F - 8.6 °F 13% 30.21 in 10.0 mi ESE 4.6 mph - N/A   Clear
1:35 PM 60.8 °F - 6.8 °F 12% 30.20 in 10.0 mi SSE 5.8 mph - N/A   Clear
1:55 PM 62.6 °F - 8.6 °F 12% 30.20 in 10.0 mi NNE 3.5 mph - N/A   Clear
2:15 PM 62.6 °F - 10.4 °F 13% 30.20 in 10.0 mi ENE 6.9 mph - N/A   Clear
2:35 PM 62.6 °F - 10.4 °F 13% 30.19 in 10.0 mi SSE 6.9 mph - N/A   Clear
2:55 PM 62.6 °F - 12.2 °F 14% 30.19 in 10.0 mi SSE 8.1 mph - N/A   Clear
3:15 PM 62.6 °F - 10.4 °F 13% 30.19 in 10.0 mi East 3.5 mph - N/A   Clear
3:35 PM 62.6 °F - 10.4 °F 13% 30.18 in 8.0 mi Calm Calm - N/A   Clear
3:55 PM 62.6 °F - 12.2 °F 14% 30.18 in 10.0 mi SSE 6.9 mph - N/A   Clear
4:15 PM 62.6 °F - 10.4 °F 13% 30.19 in 10.0 mi SSE 3.5 mph - N/A   Clear
4:35 PM 62.6 °F - 10.4 °F 13% 30.19 in 10.0 mi Calm Calm - N/A   Clear
4:55 PM 59.0 °F - 10.4 °F 15% 30.19 in 10.0 mi NNE 9.2 mph - N/A   Clear
5:15 PM 57.2 °F - 10.4 °F 16% 30.19 in 10.0 mi NNE 6.9 mph - N/A   Clear
5:35 PM 55.4 °F - 12.2 °F 18% 30.19 in 10.0 mi NNE 3.5 mph - N/A   Clear
5:55 PM 51.8 °F - 12.2 °F 21% 30.19 in 10.0 mi NNW 3.5 mph - N/A   Clear
6:15 PM 48.2 °F - 12.2 °F 24% 30.20 in 10.0 mi North 5.8 mph - N/A   Clear
6:35 PM 48.2 °F - 10.4 °F 22% 30.21 in 10.0 mi NNE 6.9 mph - N/A   Clear
7:15 PM 46.4 °F 42.4 °F 8.6 °F 22% 30.23 in 10.0 mi NNE 8.1 mph - N/A   Clear
7:35 PM 44.6 °F 40.2 °F 8.6 °F 23% 30.22 in 10.0 mi NNE 8.1 mph - N/A   Clear
7:55 PM 44.6 °F 39.7 °F 6.8 °F 21% 30.23 in 10.0 mi NNE 9.2 mph - N/A   Clear
8:15 PM 44.6 °F 40.2 °F 5.0 °F 20% 30.23 in 10.0 mi North 8.1 mph - N/A   Clear
8:35 PM 44.6 °F 39.7 °F 3.2 °F 18% 30.23 in 10.0 mi NNE 9.2 mph - N/A   Clear
8:55 PM 42.8 °F 38.0 °F 3.2 °F 19% 30.23 in 10.0 mi NNE 8.1 mph - N/A   Clear
9:15 PM 44.6 °F 39.2 °F 3.2 °F 18% 30.23 in 10.0 mi NNE 10.4 mph - N/A   Clear
9:35 PM 42.8 °F 39.3 °F 1.4 °F 18% 30.24 in 10.0 mi NNE 5.8 mph - N/A   Clear
9:55 PM 42.8 °F 39.3 °F 1.4 °F 18% 30.24 in 10.0 mi NNE 5.8 mph - N/A   Clear
10:15 PM 42.8 °F - -0.4 °F 16% 30.24 in 10.0 mi Calm Calm - N/A   Clear
10:35 PM 42.8 °F 38.6 °F -0.4 °F 16% 30.24 in 10.0 mi NE 6.9 mph - N/A   Clear
10:55 PM 42.8 °F 39.3 °F -0.4 °F 16% 30.24 in 10.0 mi NNE 5.8 mph - N/A   Clear
11:15 PM 42.8 °F 40.1 °F -0.4 °F 16% 30.25 in 10.0 mi NNE 4.6 mph - N/A   Clear
11:35 PM 42.8 °F 39.3 °F -0.4 °F 16% 30.25 in 10.0 mi NE 5.8 mph - N/A   Clear
11:55 PM 44.6 °F 43.1 °F -0.4 °F 15% 30.25 in 10.0 mi NE 3.5 mph - N/A   Clear